Language: 


Des rapports , des résumés tant et plus, au choix de chacun....


Données statistiques de la station
Quotidien Rapport Janvier 10, 2018 Unités:  Anglais    Métrique   les deux
« Précédent Jour
Suivant Jour »
Quotidien Hebdomadaire Mensuel Annuel Actuel
  Haut: Bas: Moyen:
Température: TemperatureC °F 7.4 °F 8.3 °F
Pt de rosée: DewpointC °F 7.0 °F 8.4 °F
Humidité: Humidity % 95 % 94 %
Vitesse du vent: WindSpeedKMH mph 0.0 mph 4.3 mph
Rafales: WindSpeedGustKMH mph - -
Vent:- - SSW
Pression: PressurehPa in 1005.0 in -
Précipitation: 5.8 in    
Historical Graphs
 
 
Données statistiques pour Janvier 10, 2018
Heure Température Point de rosée Pression Vent Vitesse du vent Refales Humidité Pluie (taux horaire)
TemperatureC °F DewpointC °F PressurehPa in Calm     Humidity % HourlyPrecipMM in
00:01 7.4 °F 7.0 °F 1006.0 in SSW 5.5 mph 9.7 mph 98 % 0.0 in
00:02 7.4 °F 7.0 °F 1006.0 in SSW 1.8 mph 9.7 mph 98 % 0.0 in
00:07 7.4 °F 7.0 °F 1006.0 in SSW 5.8 mph 9.7 mph 98 % 0.0 in
00:24 7.5 °F 8.0 °F 1006.0 in SSW 5.8 mph 10.5 mph 98 % 0.0 in
00:29 7.5 °F 8.0 °F 1007.0 in Calm   10.5 mph 98 % 0.0 in
00:53 7.5 °F 8.0 °F 1006.0 in Calm   6.4 mph 98 % 0.0 in
14:32 9.9 °F 10.0 °F 1005.0 in WSW 10.1 mph 14.8 mph 98 % 0.0 in
14:47 10.6 °F 11.0 °F 1005.0 in SSW 9.7 mph 12.6 mph 98 % 0.0 in
14:53 10.5 °F 11.0 °F 1005.0 in WSW 16.6 mph 16.6 mph 98 % 0.0 in
14:59 10.3 °F 10.0 °F 1006.0 in WSW 9.7 mph 16.6 mph 97 % 0.0 in
15:20 9.8 °F 9.0 °F 1005.0 in SSW 6.4 mph 13.0 mph 96 % 0.0 in
15:54 9.6 °F 9.0 °F 1006.0 in SSW 5.5 mph 10.8 mph 96 % 0.0 in
16:15 9.5 °F 9.0 °F 1006.0 in Calm   8.7 mph 95 % 0.0 in
16:21 9.3 °F 9.0 °F 1006.0 in SSW 9.0 mph 9.0 mph 95 % 0.0 in
16:28 9.0 °F 9.0 °F 1006.0 in SSE 6.4 mph 12.2 mph 95 % 0.0 in
16:36 8.8 °F 9.0 °F 1006.0 in SSW 4.3 mph 9.3 mph 96 % 0.0 in
16:45 8.7 °F 9.0 °F 1007.0 in Calm   9.3 mph 96 % 0.0 in
16:54 8.5 °F 9.0 °F 1007.0 in South 5.5 mph 7.9 mph 96 % 0.0 in
17:02 8.5 °F 9.0 °F 1007.0 in Calm   6.9 mph 97 % 0.0 in
17:09 8.5 °F 9.0 °F 1007.0 in Calm   9.0 mph 98 % 0.0 in
17:30 8.4 °F 9.0 °F 1007.0 in SSE 3.5 mph 9.3 mph 98 % 0.0 in
17:35 8.3 °F 9.0 °F 1007.0 in South 5.5 mph 9.3 mph 98 % 0.0 in
17:40 8.2 °F 8.0 °F 1007.0 in Calm   10.8 mph 98 % 0.0 in
17:59 8.1 °F 8.0 °F 1007.0 in SSW 1.8 mph 9.0 mph 98 % 0.0 in
18:06 8.0 °F 8.0 °F 1007.0 in SSW 5.8 mph 9.0 mph 98 % 0.0 in
18:25 8.2 °F 8.0 °F 1007.0 in SSW 5.5 mph 9.3 mph 98 % 0.0 in
18:30 8.2 °F 8.0 °F 1007.0 in Calm   9.3 mph 98 % 0.0 in
18:48 8.1 °F 8.0 °F 1007.0 in SSW 5.8 mph 9.7 mph 98 % 0.0 in
19:05 8.0 °F 8.0 °F 1006.0 in Calm   6.9 mph 98 % 0.0 in
Le Gheer Warneton
Courtoisie de Weather Underground - 1 mb

Mise a jour : 22/02/2018 04:21:11
Généré par Cumulus 1.9.4 (1099)